Location: ???? ????
(41.4149°N, 22.8816°E)
Time: 14:37:59
(UTC+00:00)

Cosmos 192 - Pass Details

Date: 14 July 2020
Orbit: 702 x 712 km, 74.0° (Epoch: 04 August)

Event Time Altitude Azimuth Distance (km) Brightness Sun altitude
Rises 01:04:07 0° 339° (NNW) 3,100 8.1 -18.0°
Reaches altitude 10° 01:06:27 10° 339° (NNW) 2,177 7.3 -17.8°
Maximum altitude 01:11:22 85° 252° (WSW) 710 4.2 -17.2°
Enters shadow 01:15:57 12° 164° (SSE) 2,046 6.4 -16.7°
